NWS Melbourne » East Central Florida Hourly Weather Roundup

MIARWRMLB 000
TTAA00 KMLB 310411
HOURLY WEATHER ROUNDUP AROUND FLORIDA
NATIONAL WEATHER SERVICE OFFICE MELBOURNE FL
1200 AM EDT SUN AUG 31 2014
  
CITY           SKY/WX    TMP DP  RH WIND       PRES   REMARKS
MELBOURNE      CLEAR     80  73  79 CALM      30.13R                  
FORT PIERCE    CLEAR     83  73  72 SE5       30.13R                  
ORLANDO INTL   MOCLDY    79  74  84 CALM      30.15R                  
DAYTONA BEACH  PTCLDY    78  75  90 CALM      30.15R                  
VERO BEACH     MOCLDY    82  75  79 SE5       30.13R                  
$$
...ELSEWHERE ACROSS CENTRAL FLORIDA...
  
CITY           SKY/WX    TMP DP  RH WIND       PRES   REMARKS
PATRICK AFB    PTCLDY    83  73  72 SE5       30.14R                  
JFK SPACE CTR  PTCLDY    80  74  82 SE2       30.14R                  
CAPE CANAVERAL CLEAR     78  73  85 SE6       30.13R                  
ORLANDO EXEC   CLEAR     80  75  84 SE5       30.15R                  
LEESBURG       CLEAR     80  74  81 CALM      30.16R                  
SANFORD        MOCLDY    80  75  84 CALM      30.15R                  
WINTER HAVEN   CLEAR     80  72  76 VRB3      30.16R                  
OKEECHOBEE       N/A     73  73 100 MISG      30.14                   
TAMPA          MOCLDY    78  72  81 N3        30.15R                  
$$
...NORTHERN FLORIDA...
  
CITY           SKY/WX    TMP DP  RH WIND       PRES   REMARKS
DELAND         CLEAR     77  75  94 CALM      30.16S                  
PALM COAST     CLEAR     78  74  88 S3        30.14S                  
ST AUGUSTINE   CLEAR     81  76  84 SW6       30.15R                  
OCALA          CLOUDY    75  73  94 NW5       30.16R                  
GAINESVILLE    MOCLDY    73  71  93 SW7       30.16R                  
JACKSONVILLE   MOCLDY    78  76  93 S3        30.14R                  
TALLAHASSEE      N/A     80  75  84 CALM      30.12R                  
$$
...ALONG THE SOUTHEAST COAST TO THE KEYS...
  
CITY           SKY/WX    TMP DP  RH WIND       PRES   REMARKS
STUART         CLEAR     81  72  74 SE3       30.13S                  
WEST PALM BCH  PTCLDY    84  75  74 SE10      30.11R                  
MIAMI          PTCLDY    85  75  72 E12       30.10S                  
KEY WEST       PTCLDY    86  73  65 SE20      30.08R                  
$$
...MARINE REPORTS...
  
STATION/POSITION TIME  TEMP    WIND        PRES    WAVE   SWELL
                       AIR SEA DIR/SP/G            HT/PER HT/PER/DIR
                 (UTC) (F)     (DEG/KT/KT) (MB)    (FT/S) (FT/S/D)
ST AUGUSTINE FP  0400   81     210/  5/  6 1021.2R
20NM E CAPE CANA 0400   84 83  150/  8/ 10 1020.7R   2/ 8   2/ 80/ 8
120 E NEW SMYRNA 0400   81 85  190/ 10/ 14 1021.0F   3/ 8   3/100/ 8
TRIDENT PIER     0400   82 85  130/  5/  7 1020.0R
SEBASTIAN INLET  0400   84     140/  8     1021.0S
4NM E PORT CANAV 0400      84                N/A     2/ 8
6NM NE FPR INLET 0400      84                N/A     3/ 9
SETTLEMENT PT GB 0400   83     130/  5/  7 1020.5S
$$
  
 


USA.gov is the U.S. government's official web portal to all federal, state and local government web resources and services.